PTALB SNQX-SNSG

Flight info

Callsign PTALB
Flight time 1h 51m
Altitude 6500
Route 0523S03855W 0614S03854W 0645S03858W 0718S03856W 0749S03856W
Aircraft C172/L-SFG/C

Departure

Time 2026-04-21 20:34
Airport Quixadá Airport (SNQX)

Arrival

Time 2026-04-21 22:25
Airport Salgueiro Airport (SNSG)
Time Latitude Longitude Altitude Speed Heading
2026-04-21 20:06 -4.97957 -38.98964 745 ft 0 kts 287°
2026-04-21 20:28 -4.97954 -38.98970 726 ft 3 kts 306°
2026-04-21 20:29 -4.97920 -38.98985 730 ft 7 kts
2026-04-21 20:29 -4.97897 -38.98981 729 ft 0 kts 13°
2026-04-21 20:31 -4.97889 -38.98979 729 ft 5 kts 11°
2026-04-21 20:31 -4.97832 -38.98985 729 ft 13 kts 298°
2026-04-21 20:31 -4.97788 -38.99106 729 ft 23 kts 283°
2026-04-21 20:31 -4.97765 -38.99229 729 ft 13 kts 263°
2026-04-21 20:32 -4.97738 -38.99264 729 ft 6 kts 79°
2026-04-21 20:32 -4.97759 -38.99219 729 ft 0 kts 103°
2026-04-21 20:33 -4.97787 -38.99116 729 ft 37 kts 110°
2026-04-21 20:33 -4.97907 -38.98746 729 ft 74 kts 108°
2026-04-21 20:33 -4.98093 -38.98221 845 ft 80 kts 104°
2026-04-21 20:33 -4.98273 -38.97704 987 ft 87 kts 102°
2026-04-21 20:34 -4.98435 -38.97153 1242 ft 78 kts 101°
2026-04-21 20:34 -4.98346 -38.96586 1286 ft 83 kts 49°
2026-04-21 20:34 -4.97866 -38.96349 1454 ft 85 kts
2026-04-21 20:34 -4.97328 -38.96570 1653 ft 87 kts 320°
2026-04-21 20:35 -4.97066 -38.97120 1808 ft 95 kts 285°
2026-04-21 20:35 -4.97058 -38.97770 2034 ft 88 kts 248°
2026-04-21 20:35 -4.97447 -38.98249 2184 ft 89 kts 217°
2026-04-21 20:35 -4.98035 -38.98479 2282 ft 94 kts 182°
2026-04-21 20:36 -4.98721 -38.98481 2357 ft 102 kts 171°
2026-04-21 20:36 -4.99451 -38.98414 2451 ft 109 kts 171°
2026-04-21 20:36 -5.00212 -38.98326 2571 ft 108 kts 168°
2026-04-21 20:36 -5.00955 -38.98216 2691 ft 108 kts 167°
2026-04-21 20:37 -5.01701 -38.98095 2807 ft 107 kts 168°
2026-04-21 20:37 -5.02433 -38.97970 2936 ft 108 kts 167°
2026-04-21 20:37 -5.03180 -38.97842 3058 ft 108 kts 167°
2026-04-21 20:37 -5.03919 -38.97713 3175 ft 106 kts 168°
2026-04-21 20:38 -5.04632 -38.97590 3292 ft 100 kts 168°
2026-04-21 20:38 -5.05293 -38.97474 3402 ft 96 kts 167°
2026-04-21 20:38 -5.05934 -38.97361 3510 ft 90 kts 167°
2026-04-21 20:38 -5.06536 -38.97255 3624 ft 86 kts 167°
2026-04-21 20:39 -5.07117 -38.97153 3735 ft 83 kts 166°
2026-04-21 20:39 -5.07684 -38.97052 3853 ft 83 kts 166°
2026-04-21 20:39 -5.08256 -38.96952 3973 ft 82 kts 166°
2026-04-21 20:39 -5.08821 -38.96851 4097 ft 82 kts 166°
2026-04-21 20:40 -5.09394 -38.96751 4219 ft 85 kts 167°
2026-04-21 20:40 -5.09981 -38.96648 4343 ft 87 kts 165°
2026-04-21 20:40 -5.10574 -38.96544 4466 ft 86 kts 166°
2026-04-21 20:40 -5.11158 -38.96441 4590 ft 85 kts 166°
2026-04-21 20:41 -5.11750 -38.96337 4713 ft 86 kts 166°
2026-04-21 20:41 -5.12335 -38.96234 4837 ft 86 kts 166°
2026-04-21 20:41 -5.12932 -38.96129 4957 ft 88 kts 166°
2026-04-21 20:41 -5.13540 -38.96023 5081 ft 88 kts 166°
2026-04-21 20:42 -5.14155 -38.95915 5206 ft 92 kts 166°
2026-04-21 20:42 -5.14803 -38.95801 5327 ft 96 kts 167°
2026-04-21 20:42 -5.15467 -38.95684 5452 ft 99 kts 166°
2026-04-21 20:42 -5.16144 -38.95566 5576 ft 99 kts 166°
2026-04-21 20:43 -5.16839 -38.95444 5706 ft 104 kts 166°
2026-04-21 20:43 -5.17572 -38.95314 5835 ft 111 kts 167°
2026-04-21 20:43 -5.18324 -38.95183 5956 ft 106 kts 166°
2026-04-21 20:43 -5.19031 -38.95060 6075 ft 99 kts 166°
2026-04-21 20:44 -5.19692 -38.94944 6186 ft 94 kts 165°
2026-04-21 20:44 -5.20323 -38.94833 6301 ft 91 kts 165°
2026-04-21 20:44 -5.20939 -38.94724 6407 ft 91 kts 164°
2026-04-21 20:44 -5.21599 -38.94606 6420 ft 101 kts 165°
2026-04-21 20:45 -5.22310 -38.94481 6427 ft 104 kts 165°
2026-04-21 20:45 -5.23033 -38.94355 6429 ft 105 kts 166°
2026-04-21 20:45 -5.23750 -38.94229 6429 ft 106 kts 166°
2026-04-21 20:45 -5.24478 -38.94102 6431 ft 106 kts 166°
2026-04-21 20:46 -5.25196 -38.93976 6432 ft 104 kts 166°
2026-04-21 20:46 -5.25906 -38.93851 6428 ft 102 kts 166°
2026-04-21 20:46 -5.26593 -38.93730 6423 ft 100 kts 165°
2026-04-21 20:46 -5.27291 -38.93607 6429 ft 102 kts 165°
2026-04-21 20:47 -5.28012 -38.93480 6435 ft 108 kts 166°
2026-04-21 20:47 -5.28790 -38.93342 6438 ft 119 kts 164°
2026-04-21 20:47 -5.29650 -38.93191 6433 ft 133 kts 166°
2026-04-21 20:47 -5.30577 -38.93029 6428 ft 136 kts 167°
2026-04-21 20:48 -5.31515 -38.92865 6433 ft 137 kts 170°
2026-04-21 20:48 -5.32450 -38.92704 6430 ft 137 kts 167°
2026-04-21 20:48 -5.33397 -38.92538 6416 ft 135 kts 167°
2026-04-21 20:48 -5.34303 -38.92376 6417 ft 131 kts 167°
2026-04-21 20:49 -5.35166 -38.92227 6407 ft 119 kts 167°
2026-04-21 20:49 -5.35955 -38.92087 6411 ft 112 kts 166°
2026-04-21 20:49 -5.36728 -38.91949 6415 ft 112 kts 165°
2026-04-21 20:49 -5.37503 -38.91811 6418 ft 116 kts 166°
2026-04-21 20:50 -5.38329 -38.91671 6430 ft 124 kts 168°
2026-04-21 20:50 -5.39229 -38.91656 6430 ft 133 kts 176°
2026-04-21 20:50 -5.40155 -38.91634 6419 ft 132 kts 176°
2026-04-21 20:50 -5.41027 -38.91617 6411 ft 120 kts 174°
2026-04-21 20:51 -5.41570 -38.91605 6408 ft 115 kts 174°
2026-04-21 20:51 -5.42358 -38.91588 6413 ft 109 kts 174°
2026-04-21 20:51 -5.43109 -38.91573 6414 ft 107 kts 174°
2026-04-21 20:51 -5.43839 -38.91558 6411 ft 104 kts 174°
2026-04-21 20:52 -5.44557 -38.91544 6413 ft 102 kts 173°
2026-04-21 20:52 -5.45250 -38.91530 6412 ft 100 kts 173°
2026-04-21 20:52 -5.45947 -38.91516 6413 ft 99 kts 174°
2026-04-21 20:52 -5.46640 -38.91502 6411 ft 100 kts 174°
2026-04-21 20:53 -5.47334 -38.91488 6412 ft 100 kts 173°
2026-04-21 20:53 -5.48029 -38.91474 6415 ft 99 kts 173°
2026-04-21 20:53 -5.48715 -38.91461 6416 ft 100 kts 173°
2026-04-21 20:53 -5.49406 -38.91448 6414 ft 100 kts 173°
2026-04-21 20:54 -5.50099 -38.91434 6417 ft 99 kts 173°
2026-04-21 20:54 -5.50786 -38.91421 6414 ft 99 kts 173°
2026-04-21 20:54 -5.51480 -38.91407 6415 ft 98 kts 173°
2026-04-21 20:54 -5.52166 -38.91393 6419 ft 100 kts 173°
2026-04-21 20:55 -5.52876 -38.91379 6422 ft 103 kts 173°
2026-04-21 20:55 -5.53600 -38.91364 6427 ft 105 kts 173°
2026-04-21 20:55 -5.54333 -38.91350 6427 ft 106 kts 174°
2026-04-21 20:55 -5.55066 -38.91336 6429 ft 106 kts 174°
2026-04-21 20:56 -5.55813 -38.91322 6429 ft 107 kts 174°
2026-04-21 20:56 -5.56558 -38.91307 6434 ft 108 kts 174°
2026-04-21 20:56 -5.57326 -38.91292 6430 ft 110 kts 173°
2026-04-21 20:56 -5.58098 -38.91277 6430 ft 113 kts 174°
2026-04-21 20:57 -5.58890 -38.91261 6433 ft 114 kts 174°
2026-04-21 20:57 -5.59689 -38.91246 6438 ft 116 kts 174°
2026-04-21 20:57 -5.60509 -38.91229 6427 ft 119 kts 174°
2026-04-21 20:57 -5.61342 -38.91213 6430 ft 118 kts 174°
2026-04-21 20:58 -5.62153 -38.91198 6426 ft 116 kts 174°
2026-04-21 20:58 -5.62952 -38.91183 6423 ft 113 kts 174°
2026-04-21 20:58 -5.63735 -38.91168 6422 ft 112 kts 173°
2026-04-21 20:58 -5.64515 -38.91152 6422 ft 112 kts 174°
2026-04-21 20:59 -5.65293 -38.91137 6420 ft 112 kts 174°
2026-04-21 20:59 -5.66069 -38.91121 6420 ft 110 kts 174°
2026-04-21 20:59 -5.66836 -38.91107 6420 ft 110 kts 174°
2026-04-21 20:59 -5.67599 -38.91091 6416 ft 110 kts 174°
2026-04-21 21:00 -5.68364 -38.91077 6416 ft 110 kts 174°
2026-04-21 21:00 -5.69126 -38.91061 6417 ft 109 kts 174°
2026-04-21 21:00 -5.69874 -38.91047 6417 ft 108 kts 174°
2026-04-21 21:00 -5.70635 -38.91032 6418 ft 108 kts 174°
2026-04-21 21:01 -5.71383 -38.91017 6416 ft 108 kts 174°
2026-04-21 21:01 -5.72127 -38.91003 6418 ft 107 kts 174°
2026-04-21 21:01 -5.72869 -38.90988 6415 ft 107 kts 174°
2026-04-21 21:01 -5.73611 -38.90973 6415 ft 107 kts 174°
2026-04-21 21:02 -5.74361 -38.90958 6417 ft 107 kts 174°
2026-04-21 21:02 -5.75094 -38.90944 6418 ft 106 kts 174°
2026-04-21 21:02 -5.75838 -38.90930 6420 ft 105 kts 173°
2026-04-21 21:02 -5.76572 -38.90915 6418 ft 105 kts 173°
2026-04-21 21:03 -5.77309 -38.90901 6423 ft 107 kts 174°
2026-04-21 21:03 -5.78050 -38.90886 6425 ft 108 kts 174°
2026-04-21 21:03 -5.78798 -38.90872 6425 ft 108 kts 174°
2026-04-21 21:03 -5.79548 -38.90857 6427 ft 107 kts 174°
2026-04-21 21:04 -5.80299 -38.90842 6425 ft 107 kts 174°
2026-04-21 21:04 -5.81042 -38.90828 6421 ft 107 kts 174°
2026-04-21 21:04 -5.81787 -38.90813 6421 ft 106 kts 173°
2026-04-21 21:04 -5.82520 -38.90799 6420 ft 105 kts 173°
2026-04-21 21:05 -5.83244 -38.90785 6420 ft 105 kts 173°
2026-04-21 21:05 -5.83983 -38.90769 6423 ft 106 kts 173°
2026-04-21 21:05 -5.84715 -38.90756 6420 ft 105 kts 173°
2026-04-21 21:05 -5.85450 -38.90741 6422 ft 106 kts 174°
2026-04-21 21:06 -5.86193 -38.90726 6422 ft 107 kts 174°
2026-04-21 21:06 -5.86949 -38.90712 6427 ft 108 kts 173°
2026-04-21 21:06 -5.87696 -38.90697 6427 ft 108 kts 174°
2026-04-21 21:06 -5.88448 -38.90682 6428 ft 108 kts 173°
2026-04-21 21:07 -5.89199 -38.90667 6428 ft 108 kts 173°
2026-04-21 21:07 -5.89958 -38.90653 6426 ft 108 kts 173°
2026-04-21 21:07 -5.90711 -38.90638 6424 ft 108 kts 173°
2026-04-21 21:07 -5.91469 -38.90623 6428 ft 109 kts 173°
2026-04-21 21:08 -5.92223 -38.90608 6429 ft 109 kts 173°
2026-04-21 21:08 -5.92978 -38.90594 6431 ft 109 kts 173°
2026-04-21 21:08 -5.93740 -38.90579 6433 ft 109 kts 174°
2026-04-21 21:08 -5.94497 -38.90564 6431 ft 108 kts 173°
2026-04-21 21:09 -5.95248 -38.90549 6430 ft 108 kts 173°
2026-04-21 21:09 -5.95995 -38.90534 6425 ft 108 kts 173°
2026-04-21 21:09 -5.96744 -38.90520 6424 ft 108 kts 173°
2026-04-21 21:09 -5.97498 -38.90505 6428 ft 108 kts 173°
2026-04-21 21:10 -5.98242 -38.90490 6428 ft 108 kts 174°
2026-04-21 21:10 -5.98993 -38.90476 6426 ft 107 kts 173°
2026-04-21 21:10 -5.99739 -38.90461 6427 ft 107 kts 173°
2026-04-21 21:10 -6.00485 -38.90446 6428 ft 106 kts 174°
2026-04-21 21:11 -6.01223 -38.90432 6430 ft 107 kts 173°
2026-04-21 21:11 -6.01982 -38.90417 6430 ft 108 kts 174°
2026-04-21 21:11 -6.02731 -38.90402 6432 ft 110 kts 173°
2026-04-21 21:11 -6.03510 -38.90387 6433 ft 112 kts 174°
2026-04-21 21:12 -6.04302 -38.90371 6436 ft 114 kts 174°
2026-04-21 21:12 -6.05100 -38.90355 6434 ft 116 kts 174°
2026-04-21 21:12 -6.05890 -38.90340 6428 ft 112 kts 174°
2026-04-21 21:12 -6.06658 -38.90326 6423 ft 109 kts 174°
2026-04-21 21:13 -6.07419 -38.90310 6424 ft 110 kts 173°
2026-04-21 21:13 -6.08190 -38.90295 6425 ft 111 kts 174°
2026-04-21 21:13 -6.08961 -38.90280 6427 ft 111 kts 174°
2026-04-21 21:13 -6.09726 -38.90265 6422 ft 109 kts 174°
2026-04-21 21:14 -6.10483 -38.90250 6425 ft 109 kts 173°
2026-04-21 21:14 -6.11248 -38.90235 6421 ft 109 kts 173°
2026-04-21 21:14 -6.11998 -38.90220 6421 ft 108 kts 173°
2026-04-21 21:14 -6.12759 -38.90205 6421 ft 108 kts 173°
2026-04-21 21:15 -6.13508 -38.90191 6422 ft 108 kts 173°
2026-04-21 21:15 -6.14260 -38.90176 6421 ft 108 kts 174°
2026-04-21 21:15 -6.15004 -38.90162 6420 ft 108 kts 174°
2026-04-21 21:15 -6.15747 -38.90147 6417 ft 104 kts 173°
2026-04-21 21:16 -6.16458 -38.90133 6420 ft 99 kts 173°
2026-04-21 21:16 -6.17148 -38.90119 6419 ft 100 kts 173°
2026-04-21 21:16 -6.17837 -38.90105 6423 ft 101 kts 173°
2026-04-21 21:16 -6.18550 -38.90091 6424 ft 103 kts 173°
2026-04-21 21:17 -6.19271 -38.90077 6422 ft 104 kts 173°
2026-04-21 21:17 -6.19991 -38.90063 6428 ft 104 kts 173°
2026-04-21 21:17 -6.20728 -38.90049 6428 ft 105 kts 173°
2026-04-21 21:17 -6.21454 -38.90034 6424 ft 102 kts 173°
2026-04-21 21:18 -6.22167 -38.90021 6428 ft 103 kts 173°
2026-04-21 21:18 -6.22881 -38.90007 6425 ft 104 kts 173°
2026-04-21 21:18 -6.23605 -38.90029 6425 ft 104 kts 182°
2026-04-21 21:18 -6.24328 -38.90128 6424 ft 104 kts 181°
2026-04-21 21:19 -6.25038 -38.90219 6422 ft 104 kts 180°
2026-04-21 21:19 -6.25766 -38.90311 6431 ft 105 kts 181°
2026-04-21 21:19 -6.26488 -38.90404 6430 ft 106 kts 181°
2026-04-21 21:19 -6.27221 -38.90499 6432 ft 106 kts 181°
2026-04-21 21:20 -6.27953 -38.90593 6428 ft 106 kts 181°
2026-04-21 21:20 -6.28676 -38.90686 6430 ft 106 kts 180°
2026-04-21 21:20 -6.29412 -38.90781 6433 ft 107 kts 180°
2026-04-21 21:20 -6.30141 -38.90875 6431 ft 106 kts 181°
2026-04-21 21:21 -6.30875 -38.90969 6435 ft 106 kts 181°
2026-04-21 21:21 -6.31368 -38.91033 6429 ft 106 kts 181°
2026-04-21 21:21 -6.32331 -38.91158 6432 ft 104 kts 181°
2026-04-21 21:21 -6.33060 -38.91252 6436 ft 106 kts 180°
2026-04-21 21:22 -6.33549 -38.91314 6433 ft 107 kts 181°
2026-04-21 21:22 -6.34290 -38.91410 6432 ft 108 kts 181°
2026-04-21 21:22 -6.35035 -38.91506 6433 ft 107 kts 181°
2026-04-21 21:22 -6.35771 -38.91601 6429 ft 107 kts 181°
2026-04-21 21:23 -6.36502 -38.91695 6433 ft 107 kts 181°
2026-04-21 21:23 -6.37241 -38.91791 6432 ft 106 kts 181°
2026-04-21 21:23 -6.37974 -38.91885 6432 ft 106 kts 181°
2026-04-21 21:23 -6.38696 -38.91979 6434 ft 106 kts 181°
2026-04-21 21:24 -6.39430 -38.92073 6435 ft 107 kts 181°
2026-04-21 21:24 -6.40169 -38.92168 6433 ft 106 kts 181°
2026-04-21 21:24 -6.40903 -38.92263 6432 ft 107 kts 181°
2026-04-21 21:24 -6.41636 -38.92357 6431 ft 107 kts 181°
2026-04-21 21:25 -6.42385 -38.92454 6434 ft 109 kts 181°
2026-04-21 21:25 -6.43150 -38.92552 6441 ft 112 kts 182°
2026-04-21 21:25 -6.43935 -38.92653 6436 ft 114 kts 182°
2026-04-21 21:25 -6.44714 -38.92755 6437 ft 113 kts 182°
2026-04-21 21:26 -6.45496 -38.92856 6437 ft 113 kts 182°
2026-04-21 21:26 -6.46262 -38.92955 6432 ft 111 kts 182°
2026-04-21 21:26 -6.47025 -38.93053 6429 ft 109 kts 182°
2026-04-21 21:26 -6.47774 -38.93150 6428 ft 107 kts 182°
2026-04-21 21:27 -6.48509 -38.93245 6425 ft 108 kts 182°
2026-04-21 21:27 -6.49254 -38.93341 6422 ft 107 kts 182°
2026-04-21 21:27 -6.49992 -38.93436 6418 ft 106 kts 182°
2026-04-21 21:27 -6.50726 -38.93531 6419 ft 106 kts 182°
2026-04-21 21:28 -6.51450 -38.93624 6418 ft 106 kts 182°
2026-04-21 21:28 -6.52188 -38.93719 6421 ft 107 kts 182°
2026-04-21 21:28 -6.53680 -38.93911 6424 ft 108 kts 182°
2026-04-21 21:29 -6.54425 -38.94007 6425 ft 109 kts 182°
2026-04-21 21:29 -6.55180 -38.94105 6422 ft 108 kts 182°
2026-04-21 21:29 -6.55916 -38.94200 6425 ft 108 kts 182°
2026-04-21 21:29 -6.56666 -38.94297 6424 ft 108 kts 182°
2026-04-21 21:30 -6.57408 -38.94393 6426 ft 108 kts 182°
2026-04-21 21:30 -6.58148 -38.94488 6426 ft 108 kts 182°
2026-04-21 21:30 -6.58894 -38.94585 6424 ft 107 kts 182°
2026-04-21 21:30 -6.59633 -38.94680 6419 ft 106 kts 182°
2026-04-21 21:31 -6.60355 -38.94773 6418 ft 105 kts 182°
2026-04-21 21:31 -6.61082 -38.94867 6419 ft 104 kts 182°
2026-04-21 21:31 -6.61802 -38.94960 6416 ft 104 kts 182°
2026-04-21 21:31 -6.62526 -38.95054 6422 ft 104 kts 182°
2026-04-21 21:32 -6.63244 -38.95146 6422 ft 105 kts 182°
2026-04-21 21:32 -6.63975 -38.95240 6418 ft 105 kts 182°
2026-04-21 21:32 -6.64704 -38.95334 6423 ft 106 kts 182°
2026-04-21 21:32 -6.65437 -38.95429 6417 ft 106 kts 182°
2026-04-21 21:33 -6.66156 -38.95522 6421 ft 105 kts 182°
2026-04-21 21:33 -6.66887 -38.95616 6417 ft 105 kts 182°
2026-04-21 21:33 -6.67609 -38.95709 6417 ft 105 kts 182°
2026-04-21 21:33 -6.68337 -38.95803 6416 ft 105 kts 182°
2026-04-21 21:34 -6.69064 -38.95897 6416 ft 105 kts 182°
2026-04-21 21:34 -6.69791 -38.95992 6419 ft 105 kts 182°
2026-04-21 21:34 -6.70514 -38.96084 6422 ft 106 kts 182°
2026-04-21 21:34 -6.71253 -38.96180 6421 ft 106 kts 182°
2026-04-21 21:35 -6.71981 -38.96274 6422 ft 106 kts 182°
2026-04-21 21:35 -6.72717 -38.96369 6422 ft 106 kts 182°
2026-04-21 21:35 -6.73452 -38.96464 6420 ft 106 kts 182°
2026-04-21 21:35 -6.74187 -38.96559 6421 ft 107 kts 182°
2026-04-21 21:36 -6.74914 -38.96652 6423 ft 106 kts 181°
2026-04-21 21:36 -6.75646 -38.96622 6421 ft 104 kts 172°
2026-04-21 21:36 -6.76376 -38.96579 6418 ft 104 kts 172°
2026-04-21 21:36 -6.77095 -38.96537 6418 ft 104 kts 172°
2026-04-21 21:37 -6.77817 -38.96494 6419 ft 104 kts 172°
2026-04-21 21:37 -6.78549 -38.96450 6420 ft 104 kts 172°
2026-04-21 21:37 -6.79263 -38.96406 6417 ft 104 kts 172°
2026-04-21 21:37 -6.79997 -38.96361 6419 ft 105 kts 172°
2026-04-21 21:38 -6.80729 -38.96318 6420 ft 105 kts 172°
2026-04-21 21:38 -6.81453 -38.96274 6419 ft 105 kts 172°
2026-04-21 21:38 -6.82183 -38.96229 6418 ft 105 kts 172°
2026-04-21 21:38 -6.82907 -38.96186 6420 ft 105 kts 172°
2026-04-21 21:39 -6.83645 -38.96141 6421 ft 105 kts 172°
2026-04-21 21:39 -6.84385 -38.96096 6423 ft 106 kts 172°
2026-04-21 21:39 -6.85126 -38.96051 6420 ft 107 kts 172°
2026-04-21 21:39 -6.85855 -38.96008 6419 ft 105 kts 172°
2026-04-21 21:40 -6.86582 -38.95964 6419 ft 103 kts 172°
2026-04-21 21:40 -6.87307 -38.95919 6420 ft 106 kts 172°
2026-04-21 21:40 -6.88035 -38.95875 6424 ft 106 kts 172°
2026-04-21 21:40 -6.88774 -38.95831 6422 ft 105 kts 172°
2026-04-21 21:41 -6.89506 -38.95786 6427 ft 106 kts 172°
2026-04-21 21:41 -6.90254 -38.95741 6420 ft 106 kts 172°
2026-04-21 21:41 -6.90990 -38.95696 6422 ft 107 kts 172°
2026-04-21 21:41 -6.91730 -38.95651 6421 ft 108 kts 172°
2026-04-21 21:42 -6.92477 -38.95606 6424 ft 107 kts 172°
2026-04-21 21:42 -6.93222 -38.95561 6425 ft 107 kts 172°
2026-04-21 21:42 -6.93957 -38.95517 6427 ft 106 kts 172°
2026-04-21 21:42 -6.94699 -38.95471 6424 ft 107 kts 172°
2026-04-21 21:43 -6.95440 -38.95427 6422 ft 106 kts 172°
2026-04-21 21:43 -6.96179 -38.95382 6423 ft 106 kts 172°
2026-04-21 21:43 -6.96919 -38.95337 6422 ft 107 kts 172°
2026-04-21 21:43 -6.97653 -38.95293 6419 ft 105 kts 172°
2026-04-21 21:44 -6.98387 -38.95248 6421 ft 105 kts 172°
2026-04-21 21:44 -6.99109 -38.95204 6423 ft 104 kts 172°
2026-04-21 21:44 -6.99835 -38.95160 6421 ft 105 kts 172°
2026-04-21 21:44 -7.00572 -38.95116 6422 ft 105 kts 172°
2026-04-21 21:45 -7.01294 -38.95072 6421 ft 104 kts 172°
2026-04-21 21:45 -7.02021 -38.95028 6420 ft 104 kts 172°
2026-04-21 21:45 -7.02740 -38.94984 6419 ft 104 kts 172°
2026-04-21 21:45 -7.03458 -38.94941 6421 ft 103 kts 172°
2026-04-21 21:46 -7.04176 -38.94897 6423 ft 103 kts 172°
2026-04-21 21:46 -7.04895 -38.94854 6419 ft 103 kts 172°
2026-04-21 21:46 -7.05618 -38.94810 6419 ft 103 kts 171°
2026-04-21 21:46 -7.06332 -38.94767 6422 ft 103 kts 171°
2026-04-21 21:47 -7.07052 -38.94723 6424 ft 104 kts 171°
2026-04-21 21:47 -7.07778 -38.94679 6426 ft 104 kts 171°
2026-04-21 21:47 -7.08499 -38.94635 6426 ft 104 kts 171°
2026-04-21 21:47 -7.09218 -38.94592 6428 ft 104 kts 171°
2026-04-21 21:48 -7.09945 -38.94547 6426 ft 103 kts 171°
2026-04-21 21:48 -7.10663 -38.94504 6424 ft 103 kts 171°
2026-04-21 21:48 -7.11379 -38.94460 6428 ft 103 kts 171°
2026-04-21 21:48 -7.12093 -38.94417 6429 ft 103 kts 171°
2026-04-21 21:49 -7.12815 -38.94373 6431 ft 103 kts 171°
2026-04-21 21:49 -7.13534 -38.94330 6430 ft 104 kts 171°
2026-04-21 21:49 -7.14254 -38.94286 6431 ft 104 kts 171°
2026-04-21 21:49 -7.14976 -38.94242 6432 ft 104 kts 171°
2026-04-21 21:50 -7.15692 -38.94199 6433 ft 104 kts 171°
2026-04-21 21:50 -7.16411 -38.94155 6433 ft 104 kts 171°
2026-04-21 21:50 -7.17135 -38.94112 6436 ft 104 kts 172°
2026-04-21 21:50 -7.17854 -38.94069 6444 ft 105 kts 171°
2026-04-21 21:51 -7.18593 -38.94023 6434 ft 105 kts 171°
2026-04-21 21:51 -7.19317 -38.93973 6438 ft 104 kts 171°
2026-04-21 21:51 -7.20052 -38.93932 6439 ft 106 kts 171°
2026-04-21 21:51 -7.20792 -38.93893 6441 ft 109 kts 171°
2026-04-21 21:52 -7.21553 -38.93844 6452 ft 112 kts 171°
2026-04-21 21:52 -7.22332 -38.93797 6441 ft 112 kts 171°
2026-04-21 21:52 -7.22856 -38.93765 6436 ft 111 kts 171°
2026-04-21 21:52 -7.23862 -38.93703 6438 ft 109 kts 171°
2026-04-21 21:53 -7.24618 -38.93658 6451 ft 111 kts 171°
2026-04-21 21:53 -7.25136 -38.93625 6437 ft 113 kts 171°
2026-04-21 21:53 -7.25905 -38.93580 6432 ft 109 kts 171°
2026-04-21 21:53 -7.26656 -38.93535 6434 ft 107 kts 171°
2026-04-21 21:54 -7.27391 -38.93490 6438 ft 105 kts 171°
2026-04-21 21:54 -7.28127 -38.93444 6444 ft 109 kts 171°
2026-04-21 21:54 -7.28904 -38.93396 6447 ft 114 kts 171°
2026-04-21 21:54 -7.29697 -38.93349 6443 ft 113 kts 171°
2026-04-21 21:55 -7.30467 -38.93349 6439 ft 109 kts 175°
2026-04-21 21:55 -7.31207 -38.93345 6444 ft 107 kts 174°
2026-04-21 21:55 -7.31975 -38.93337 6434 ft 109 kts 174°
2026-04-21 21:55 -7.32719 -38.93332 6442 ft 110 kts 174°
2026-04-21 21:56 -7.33492 -38.93332 6440 ft 111 kts 174°
2026-04-21 21:56 -7.34273 -38.93332 6446 ft 112 kts 174°
2026-04-21 21:56 -7.35057 -38.93330 6440 ft 113 kts 174°
2026-04-21 21:56 -7.35822 -38.93332 6446 ft 110 kts 174°
2026-04-21 21:57 -7.36584 -38.93332 6437 ft 108 kts 174°
2026-04-21 21:57 -7.37351 -38.93331 6442 ft 111 kts 174°
2026-04-21 21:57 -7.38133 -38.93331 6446 ft 111 kts 174°
2026-04-21 21:57 -7.38898 -38.93329 6442 ft 111 kts 174°
2026-04-21 21:58 -7.39669 -38.93332 6449 ft 111 kts 174°
2026-04-21 21:58 -7.40452 -38.93332 6450 ft 112 kts 174°
2026-04-21 21:58 -7.41236 -38.93332 6449 ft 112 kts 174°
2026-04-21 21:58 -7.42003 -38.93332 6445 ft 111 kts 174°
2026-04-21 21:59 -7.42783 -38.93331 6445 ft 112 kts 174°
2026-04-21 21:59 -7.43554 -38.93331 6452 ft 110 kts 174°
2026-04-21 21:59 -7.44327 -38.93328 6458 ft 112 kts 174°
2026-04-21 21:59 -7.45104 -38.93332 6448 ft 111 kts 174°
2026-04-21 22:00 -7.45883 -38.93330 6447 ft 112 kts 174°
2026-04-21 22:00 -7.46662 -38.93332 6447 ft 112 kts 174°
2026-04-21 22:00 -7.47424 -38.93332 6449 ft 110 kts 174°
2026-04-21 22:00 -7.48194 -38.93331 6449 ft 111 kts 174°
2026-04-21 22:01 -7.48969 -38.93332 6451 ft 110 kts 174°
2026-04-21 22:01 -7.49744 -38.93332 6452 ft 110 kts 174°
2026-04-21 22:01 -7.50494 -38.93333 6446 ft 107 kts 174°
2026-04-21 22:01 -7.51236 -38.93330 6441 ft 105 kts 174°
2026-04-21 22:02 -7.51947 -38.93332 6443 ft 102 kts 173°
2026-04-21 22:02 -7.52676 -38.93331 6442 ft 106 kts 174°
2026-04-21 22:02 -7.53413 -38.93328 6454 ft 108 kts 174°
2026-04-21 22:02 -7.54173 -38.93331 6454 ft 110 kts 174°
2026-04-21 22:03 -7.54945 -38.93331 6448 ft 111 kts 174°
2026-04-21 22:03 -7.55716 -38.93331 6457 ft 111 kts 174°
2026-04-21 22:03 -7.56488 -38.93331 6455 ft 111 kts 174°
2026-04-21 22:03 -7.57246 -38.93332 6448 ft 109 kts 174°
2026-04-21 22:04 -7.57995 -38.93334 6451 ft 106 kts 173°
2026-04-21 22:04 -7.58732 -38.93331 6447 ft 107 kts 173°
2026-04-21 22:04 -7.59464 -38.93329 6442 ft 106 kts 173°
2026-04-21 22:04 -7.60207 -38.93332 6444 ft 105 kts 173°
2026-04-21 22:05 -7.60938 -38.93331 6442 ft 105 kts 173°
2026-04-21 22:05 -7.61662 -38.93331 6448 ft 105 kts 174°
2026-04-21 22:05 -7.62388 -38.93331 6448 ft 105 kts 174°
2026-04-21 22:05 -7.63118 -38.93329 6446 ft 104 kts 174°
2026-04-21 22:06 -7.63851 -38.93332 6444 ft 105 kts 174°
2026-04-21 22:06 -7.64574 -38.93331 6444 ft 104 kts 174°
2026-04-21 22:06 -7.65297 -38.93332 6442 ft 104 kts 174°
2026-04-21 22:06 -7.66029 -38.93330 6442 ft 106 kts 173°
2026-04-21 22:07 -7.66770 -38.93331 6447 ft 108 kts 173°
2026-04-21 22:07 -7.67517 -38.93331 6454 ft 107 kts 174°
2026-04-21 22:07 -7.68263 -38.93331 6449 ft 107 kts 174°
2026-04-21 22:07 -7.69004 -38.93331 6448 ft 106 kts 174°
2026-04-21 22:08 -7.69741 -38.93330 6447 ft 104 kts 174°
2026-04-21 22:08 -7.70468 -38.93332 6446 ft 105 kts 174°
2026-04-21 22:08 -7.71187 -38.93331 6448 ft 104 kts 173°
2026-04-21 22:08 -7.71911 -38.93330 6448 ft 105 kts 173°
2026-04-21 22:09 -7.72646 -38.93331 6457 ft 107 kts 174°
2026-04-21 22:09 -7.73412 -38.93330 6455 ft 111 kts 174°
2026-04-21 22:09 -7.74176 -38.93331 6452 ft 108 kts 174°
2026-04-21 22:09 -7.74934 -38.93331 6460 ft 111 kts 174°
2026-04-21 22:10 -7.75707 -38.93331 6455 ft 111 kts 174°
2026-04-21 22:10 -7.76476 -38.93332 6453 ft 109 kts 174°
2026-04-21 22:10 -7.77228 -38.93331 6456 ft 109 kts 174°
2026-04-21 22:10 -7.77985 -38.93331 6453 ft 108 kts 174°
2026-04-21 22:11 -7.78739 -38.93331 6456 ft 108 kts 174°
2026-04-21 22:11 -7.79487 -38.93331 6453 ft 108 kts 174°
2026-04-21 22:11 -7.80243 -38.93331 6454 ft 108 kts 174°
2026-04-21 22:11 -7.80993 -38.93331 6454 ft 107 kts 174°
2026-04-21 22:12 -7.81689 -38.93626 6447 ft 114 kts 211°
2026-04-21 22:12 -7.82356 -38.94040 6456 ft 113 kts 203°
2026-04-21 22:12 -7.83035 -38.94431 6454 ft 114 kts 203°
2026-04-21 22:12 -7.83731 -38.94830 6456 ft 115 kts 203°
2026-04-21 22:13 -7.84429 -38.95230 6451 ft 115 kts 203°
2026-04-21 22:13 -7.85112 -38.95624 6455 ft 114 kts 203°
2026-04-21 22:13 -7.85796 -38.96020 6458 ft 114 kts 203°
2026-04-21 22:13 -7.86487 -38.96419 6455 ft 113 kts 203°
2026-04-21 22:14 -7.87161 -38.96807 6450 ft 112 kts 202°
2026-04-21 22:14 -7.87845 -38.97201 6456 ft 114 kts 203°
2026-04-21 22:14 -7.88540 -38.97597 6452 ft 115 kts 203°
2026-04-21 22:14 -7.89226 -38.97988 6455 ft 114 kts 203°
2026-04-21 22:15 -7.89917 -38.98382 6451 ft 113 kts 203°
2026-04-21 22:15 -7.90591 -38.98765 6447 ft 107 kts 203°
2026-04-21 22:15 -7.91200 -38.99121 6442 ft 97 kts 202°
2026-04-21 22:15 -7.91796 -38.99470 6323 ft 102 kts 203°
2026-04-21 22:16 -7.92375 -38.99910 6194 ft 108 kts 225°
2026-04-21 22:16 -7.92815 -39.00526 6076 ft 109 kts 228°
2026-04-21 22:16 -7.93266 -39.01156 5956 ft 112 kts 228°
2026-04-21 22:16 -7.93728 -39.01798 5832 ft 113 kts 228°
2026-04-21 22:17 -7.94189 -39.02437 5717 ft 113 kts 228°
2026-04-21 22:17 -7.94651 -39.03082 5600 ft 114 kts 228°
2026-04-21 22:17 -7.95113 -39.03726 5480 ft 115 kts 228°
2026-04-21 22:17 -7.95587 -39.04380 5359 ft 115 kts 228°
2026-04-21 22:18 -7.96065 -39.05041 5243 ft 116 kts 228°
2026-04-21 22:18 -7.96536 -39.05699 5128 ft 114 kts 228°
2026-04-21 22:18 -7.96989 -39.06333 5004 ft 110 kts 228°
2026-04-21 22:18 -7.97428 -39.06949 4883 ft 108 kts 228°
2026-04-21 22:19 -7.97864 -39.07570 4761 ft 108 kts 228°
2026-04-21 22:19 -7.98305 -39.08193 4641 ft 108 kts 228°
2026-04-21 22:19 -7.98746 -39.08808 4506 ft 108 kts 224°
2026-04-21 22:19 -7.99264 -39.09353 4392 ft 107 kts 219°
2026-04-21 22:20 -7.99771 -39.09876 4269 ft 104 kts 219°
2026-04-21 22:20 -8.00273 -39.10395 4144 ft 102 kts 219°
2026-04-21 22:20 -8.00761 -39.10904 4019 ft 100 kts 219°
2026-04-21 22:20 -8.01229 -39.11396 3890 ft 94 kts 219°
2026-04-21 22:21 -8.01733 -39.11766 3746 ft 88 kts 205°
2026-04-21 22:21 -8.02264 -39.12104 3584 ft 92 kts 205°
2026-04-21 22:21 -8.02832 -39.12385 3415 ft 89 kts 176°
2026-04-21 22:21 -8.03370 -39.12145 3254 ft 86 kts 150°
2026-04-21 22:22 -8.03906 -39.11858 3088 ft 87 kts 149°
2026-04-21 22:22 -8.04434 -39.11552 2928 ft 89 kts 148°
2026-04-21 22:22 -8.04971 -39.11237 2806 ft 84 kts 148°
2026-04-21 22:22 -8.05432 -39.10968 2791 ft 67 kts 148°
2026-04-21 22:23 -8.05827 -39.10749 2699 ft 68 kts 150°
2026-04-21 22:23 -8.06239 -39.10535 2616 ft 69 kts 151°
2026-04-21 22:23 -8.06699 -39.10423 2512 ft 71 kts 185°
2026-04-21 22:23 -8.07049 -39.10787 2395 ft 78 kts 243°
2026-04-21 22:24 -8.07115 -39.11310 2254 ft 83 kts 284°
2026-04-21 22:24 -8.06879 -39.11808 2176 ft 77 kts 294°
2026-04-21 22:24 -8.06529 -39.12205 2037 ft 79 kts 338°
2026-04-21 22:24 -8.06036 -39.12387 1904 ft 73 kts 333°
2026-04-21 22:25 -8.05592 -39.12661 1740 ft 74 kts 325°
2026-04-21 22:25 -8.05184 -39.12961 1610 ft 71 kts 324°
2026-04-21 22:25 -8.04809 -39.13235 1540 ft 57 kts 323°
2026-04-21 22:25 -8.04580 -39.13405 1544 ft 15 kts 322°
2026-04-21 22:26 -8.04526 -39.13447 1544 ft 15 kts 323°
2026-04-21 22:26 -8.04508 -39.13511 1544 ft 0 kts 231°
2026-04-21 22:27 -8.04509 -39.13511 1544 ft 1 kts 230°
2026-04-21 22:27 -8.04521 -39.13521 1544 ft 4 kts 188°
2026-04-21 22:28 -8.04557 -39.13507 1545 ft 7 kts 193°
2026-04-21 22:28 -8.04568 -39.13513 1544 ft 0 kts 225°